{"data":{"norad_id":69977,"intl_designator":"2026-159C","name":"STARLINK-37995","alt_names":[],"object_type":"PAYLOAD","status":"ACTIVE","operator":null,"country":"US","launch_date":"2026-07-11","launch_site_code":"AFWTR","launch_vehicle":null,"mission":null,"orbit_class":"UNKNOWN","rcs_meters":null,"size_class":null,"mass_kg":null,"dimensions":null,"purposes":["comms"],"wikipedia_slug":null,"has_3d_model":false,"image_url":null,"decayed_at":null,"tle_current":{"epoch":"2026-09-19T23:56:34.817280Z","epoch_age_seconds":61206,"freshness":"FRESH","line1":"1 69977U 26159C   26262.99762520  .00042140  00000+0  77137-3 0  9997","line2":"2 69977  97.2806 104.7202 0004119  72.2320 287.9381 15.49217057 12360","mean_motion":15.49217057,"eccentricity":0.0004119,"inclination_deg":97.2806,"raan_deg":104.7202,"arg_perigee_deg":72.232,"mean_anomaly_deg":287.9381,"bstar":0.00077137,"rev_number":1236,"period_min":92.950177219744,"perigee_km":416.21545377958,"apogee_km":421.81494776258,"semimajor_km":6797.1522007711,"source":"CELESTRAK","updated_at":"2026-09-20T09:00:44.305474Z"}}}